Helicity
111 102 63 53 42 39 34 38 55 62 59 62 58 56 46 53 57 45 38 34 34 41 44 45 42 41 41 38 36 36 29 22 13 7 4 5 13 9 3 2 -4 19 17
147 109 81 77 66 65 58 60 59 57 63 64 67 71 71 70 70 63 60 39 37 47 53 51 51 52 54 52 50 47 40 29 21 13 -5 29 48 29 7 8 4 7 11
131 115 92 95 85 83 78 79 79 78 82 82 73 85 85 80 76 76 79 80 73 69 58 59 62 63 66 62 54 48 39 32 17 2 11 21 38 27 25 2 14 14 15
134 96 103 104 97 94 92 91 90 91 86 78 79 82 88 91 92 90 92 100 96 94 93 90 82 83 86 84 74 54 38 32 18 5 23 21 27 47 29 20 23 24 21
131 92 120 97 100 96 94 101 98 91 87 78 83 96 110 120 128 142 150 145 145 139 128 117 117 114 106 91 87 74 54 25 4 21 38 45 43 42 30 29 20 33 45
143 96 118 104 110 122 108 121 103 92 103 113 142 149 138 138 142 132 129 121 120 103 94 93 95 93 91 89 87 78 57 21 -15 41 44 57 72 77 67 66 56 33 35
184 135 116 113 136 137 125 106 109 127 144 159 144 144 147 126 114 112 110 101 97 91 91 89 91 93 89 85 85 78 60 27 59 61 60 86 83 96 85 55 67 72 38
184 158 129 139 162 152 133 137 151 159 154 160 144 143 117 120 115 108 105 99 96 92 87 85 83 86 88 84 80 79 77 57 63 68 74 96 95 117 142 141 105 79 86
166 165 141 134 150 170 147 145 159 179 160 165 158 137 121 122 113 105 99 88 89 88 89 89 91 90 89 87 81 75 76 77 74 80 100 113 124 192 172 170 141 146 135
177 195 197 140 127 127 122 168 172 209 184 150 139 131 131 109 93 88 80 99 101 97 100 94 87 85 83 87 89 75 49 44 99 106 137 151 192 198 162 171 168 186 200
216 180 168 157 138 128 130 150 179 164 174 138 105 92 35 53 67 88 108 89 97 98 93 88 80 53 46 66 83 65 28 92 108 148 156 225 231 198 151 165 162 134 132
236 190 174 160 146 132 139 128 141 128 87 98 75 57 61 63 73 87 79 79 87 82 79 76 62 36 16 45 54 49 88 100 129 162 184 257 209 216 175 143 134 141 158
219 228 177 155 149 157 154 139 120 130 106 95 108 78 74 68 54 55 46 42 44 40 42 44 43 54 62 55 65 70 81 93 119 154 162 228 248 192 172 147 142 141 146
186 186 174 148 172 171 168 140 132 130 135 113 109 113 92 76 73 60 52 48 45 54 52 47 52 63 70 77 76 80 93 89 96 134 152 217 207 203 182 163 160 159 159
166 164 161 175 185 201 186 186 166 149 146 174 133 114 111 98 87 68 71 66 64 56 56 57 57 53 55 66 64 69 84 105 118 134 122 192 197 187 172 163 162 167 176
150 164 199 194 200 212 207 210 210 186 184 180 168 138 120 113 102 92 83 79 76 69 62 59 60 58 56 49 57 75 97 116 144 151 147 129 167 187 178 176 181 182 181
143 159 218 214 225 233 225 233 234 218 216 208 198 173 146 134 129 112 94 85 82 79 71 66 63 48 37 43 62 83 106 137 157 169 161 151 118 133 153 154 165 176 183
140 162 216 243 233 242 252 253 255 258 257 247 229 212 185 162 143 129 112 101 92 88 82 74 55 50 50 59 73 99 129 151 163 168 172 156 132 107 90 115 134 162 178
175 165 218 231 245 263 266 283 300 317 281 266 253 241 216 186 161 156 140 117 89 94 88 81 84 69 67 77 92 119 137 145 145 144 137 133 124 105 81 80 73 136 172
209 163 209 240 247 277 297 322 331 342 326 289 285 272 235 212 193 177 161 138 112 104 110 116 105 99 86 80 99 123 140 144 142 133 135 123 109 101 91 85 70 81 115
193 213 265 273 286 354 354 351 368 381 358 329 311 277 260 238 217 187 181 158 137 133 136 122 107 100 104 77 96 126 140 123 139 112 115 125 116 107 97 94 106 103 86
204 237 288 340 331 322 321 317 306 338 326 316 334 313 287 264 239 212 192 177 164 158 153 136 100 95 112 108 73 111 135 129 109 108 119 128 118 113 106 116 121 122 121
207 268 293 330 330 329 339 353 354 363 354 378 357 345 312 275 249 224 208 200 185 167 162 150 127 90 111 121 124 130 131 132 140 119 121 133 108 111 94 92 96 99 91
152 210 276 282 323 353 347 355 353 421 420 354 340 342 330 300 268 240 226 214 199 189 175 163 127 127 101 124 146 155 146 141 120 128 106 109 104 106 99 97 89 78 71
99 201 283 299 344 338 350 345 383 357 344 360 355 351 318 292 274 255 240 223 212 192 188 165 140 141 147 152 159 137 135 130 125 128 136 135 91 97 88 86 82 74 69
71 148 202 267 336 345 336 323 297 349 381 404 381 355 352 340 309 270 243 237 221 210 190 165 162 161 161 158 160 132 111 108 121 122 130 126 128 117 78 73 68 66 59
Wind_Speed
32 34 36 38 38 37 36 37 37 36 35 33 31 30 29 29 30 31 32 32 32 34 35 36 37 39 40 41 41 42 44 45 45 46 47 48 48 48 49 51 53 53 56
32 33 35 37 36 35 34 35 34 34 33 31 30 30 28 27 28 29 30 30 31 32 34 35 36 38 39 41 42 43 44 45 46 47 47 29 47 50 50 44 52 54 55
31 31 33 35 34 33 32 33 32 31 32 31 30 29 28 28 28 28 30 31 32 33 33 35 36 38 39 40 41 42 43 44 45 42 36 43 45 50 54 42 39 45 49
27 29 29 33 32 30 30 30 29 29 29 30 29 28 28 28 28 29 30 31 32 33 34 35 37 38 39 40 42 43 43 44 44 32 37 44 42 51 53 48 34 35 39
25 26 26 30 30 28 27 27 26 26 26 26 27 26 27 28 28 29 29 31 32 33 34 36 37 38 39 41 42 43 44 44 39 34 46 48 48 54 52 50 46 32 36
23 23 28 28 26 24 24 23 24 24 24 24 25 25 25 27 27 29 30 31 32 33 34 36 38 39 40 41 43 44 45 46 40 44 45 46 51 55 55 55 56 47 35
19 18 24 23 21 21 20 20 22 21 21 21 22 24 24 26 28 29 31 32 33 33 34 36 38 39 40 42 44 45 46 47 45 47 47 49 54 56 57 55 58 58 48
15 16 18 17 17 17 18 19 21 21 20 20 21 23 24 25 27 29 31 31 32 32 33 35 37 39 41 42 44 46 47 48 44 47 49 51 56 57 56 58 60 60 61
13 13 15 15 13 13 14 17 19 20 19 19 20 21 22 24 26 28 30 30 31 32 34 35 37 39 41 42 44 45 47 49 47 49 52 55 57 55 59 60 60 61 60
6 7 9 12 11 11 13 14 16 18 18 17 18 19 21 23 24 27 29 30 31 33 34 35 36 38 40 42 44 45 46 46 49 49 52 56 57 57 58 61 62 62 63
5 8 9 9 10 10 11 11 13 15 16 17 17 18 18 20 23 26 28 30 31 32 33 34 36 36 37 41 45 45 45 47 47 49 52 57 56 56 59 60 62 64 63
11 11 11 10 9 9 7 9 9 12 12 12 13 15 18 20 23 25 28 30 31 32 33 35 36 37 39 41 43 44 46 46 47 50 54 57 56 57 59 60 61 61 61
13 12 14 13 10 7 2 3 6 7 8 9 9 12 16 19 22 25 28 30 31 33 34 35 37 40 41 42 44 45 45 45 45 48 54 56 57 58 59 60 61 62 62
19 17 16 14 11 6 1 1 6 8 8 8 8 9 14 19 22 25 28 29 31 33 34 36 38 39 41 43 44 45 46 45 44 45 52 56 57 58 59 60 61 62 61
21 22 20 14 11 7 4 3 5 9 9 9 9 13 15 17 21 23 27 29 31 33 34 36 37 38 40 42 43 43 45 46 45 44 47 55 57 58 59 60 61 61 60
24 24 21 17 13 9 7 4 5 7 10 10 12 14 16 17 19 22 25 28 30 33 34 36 37 38 39 40 41 43 44 45 46 46 46 47 54 58 59 60 61 61 61
25 25 23 19 16 13 10 7 7 7 9 12 15 15 17 18 19 21 25 28 30 31 32 34 36 37 37 39 40 41 43 45 46 47 47 49 48 52 58 59 60 60 60
28 29 26 22 20 16 14 11 10 8 11 14 15 16 17 18 18 21 24 27 28 30 32 34 35 36 37 39 40 42 43 44 44 45 47 49 50 51 51 57 58 60 59
31 31 30 26 23 20 17 15 13 11 14 16 17 17 16 17 19 21 23 25 27 29 31 33 36 36 38 39 42 43 43 43 43 43 46 49 51 53 52 50 53 57 58
34 35 32 29 27 24 19 18 16 14 16 17 17 17 15 18 19 21 23 24 26 28 30 33 34 36 38 39 41 42 43 42 42 43 44 46 48 51 51 53 52 50 54
38 37 37 34 31 29 27 25 24 22 18 18 18 15 16 17 19 20 21 23 25 27 29 30 32 35 39 38 40 42 41 40 40 40 42 46 48 50 51 51 53 53 52
41 40 40 39 36 33 28 25 23 20 18 17 16 16 19 18 18 19 19 21 22 25 28 31 32 33 38 41 42 42 48 42 34 38 40 44 47 49 49 50 52 53 55
44 45 43 41 39 36 30 26 22 19 19 20 20 21 19 17 17 19 19 19 21 24 27 30 32 33 36 40 42 44 46 47 41 34 38 43 45 48 46 48 51 50 53
40 40 42 43 43 41 36 33 33 30 28 25 23 20 19 19 19 19 18 19 21 24 25 29 31 33 35 39 41 42 40 39 42 43 36 39 43 46 46 47 47 48 51
36 38 40 43 44 44 43 39 37 34 30 24 24 23 22 20 19 18 18 18 21 23 24 26 29 32 36 37 39 37 36 37 39 41 42 39 43 42 43 45 44 46 49
34 35 37 42 45 47 46 44 40 38 32 29 28 28 27 25 23 22 20 20 20 21 21 24 29 32 35 36 36 35 34 39 39 40 41 41 42 41 44 43 42 44 49
Wind_Direction
117 107 108 108 105 99 95 91 87 82 76 70 62 54 48 36 35 36 36 35 32 33 32 30 26 24 22 18 14 12 10 6 6 5 8 14 10 4 2 2 349 353 353
115 110 109 109 104 100 95 92 86 82 75 71 64 55 42 30 25 22 17 28 31 32 29 24 20 15 13 12 9 5 4 3 359 358 359 65 19 359 346 26 3 5 14
116 109 110 109 104 99 95 91 85 80 77 74 70 59 47 40 32 23 18 20 23 23 22 17 12 9 7 7 9 8 6 6 12 25 49 22 18 4 344 24 31 24 22
111 111 108 110 104 98 94 90 84 79 75 75 69 61 56 44 35 28 23 14 10 8 4 2 358 360 1 1 0 1 4 5 8 50 30 18 26 4 358 11 31 31 28
111 109 106 111 105 99 93 89 83 78 75 70 65 54 48 43 35 25 18 11 8 5 360 1 3 6 5 4 2 358 358 5 31 32 5 2 3 357 1 4 7 22 17
115 108 115 112 104 94 88 79 79 72 67 59 50 42 38 35 31 30 27 20 16 15 13 12 14 12 10 8 5 1 360 358 20 8 9 11 360 352 357 355 354 0 9
113 104 114 110 101 91 81 76 77 66 59 47 43 47 40 40 38 34 33 31 26 19 14 11 13 13 9 9 7 2 0 359 5 3 3 1 353 349 351 353 351 348 355
118 112 111 106 95 83 76 68 70 67 56 47 47 44 42 40 38 36 32 25 20 15 11 8 10 11 9 7 6 5 3 1 9 3 358 355 347 348 350 349 346 346 343
119 121 116 109 92 73 65 70 72 68 54 46 45 40 36 31 30 30 26 18 13 10 6 4 6 8 8 7 7 6 3 359 3 1 355 351 347 351 348 346 348 347 345
135 138 122 114 98 78 72 63 63 61 57 50 47 44 35 27 25 22 20 9 7 4 3 2 4 7 8 6 3 2 3 6 2 2 358 354 353 352 351 347 346 347 344
200 174 155 133 111 91 76 60 54 52 60 57 48 45 38 17 11 6 5 4 3 2 1 1 1 5 10 6 2 3 5 4 5 3 360 352 354 353 351 349 347 344 343
185 185 172 155 136 114 74 77 51 61 54 42 38 25 13 6 357 5 2 360 1 4 2 359 356 358 357 357 1 4 3 4 3 2 358 353 353 353 350 348 348 347 345
187 186 179 165 154 142 81 40 6 7 10 13 30 21 12 4 358 352 351 350 352 350 349 352 350 351 353 355 357 359 1 1 1 1 357 354 353 351 351 349 347 346 344
187 189 185 178 169 168 160 332 324 326 335 343 351 8 3 359 349 345 345 347 347 346 347 347 349 352 355 357 357 359 360 0 0 2 1 357 355 353 351 349 347 346 345
197 193 191 192 196 196 197 294 312 311 310 314 324 331 339 346 349 348 345 345 344 345 345 346 348 350 353 355 356 359 0 0 359 359 1 359 357 354 352 348 346 345 345
205 200 200 203 219 219 243 252 289 298 301 301 307 315 326 337 342 344 346 346 347 345 345 345 346 348 351 354 357 360 360 0 358 357 356 357 357 354 351 348 346 345 344
217 208 212 216 225 230 243 254 275 285 284 293 300 308 316 327 335 342 342 343 347 350 348 347 349 351 353 356 359 0 360 359 359 359 357 354 354 355 352 349 347 345 344
226 220 219 224 228 231 243 254 268 267 282 288 293 300 308 319 330 337 339 341 344 347 347 348 349 351 353 355 356 357 358 359 3 3 359 356 354 351 352 350 348 347 346
228 223 224 227 227 233 241 254 265 265 276 282 287 293 301 312 321 330 335 338 340 343 345 347 349 349 350 353 354 356 357 358 0 2 359 357 355 351 349 351 350 350 347
231 231 226 227 227 232 236 252 259 262 274 278 282 288 293 305 316 324 330 334 336 339 342 346 347 353 351 352 353 354 355 356 358 357 357 358 355 352 350 349 348 350 350
236 230 226 227 227 230 235 241 249 253 259 268 277 277 288 297 307 315 325 331 334 336 338 344 346 348 350 352 352 351 352 353 355 356 356 354 353 352 352 351 349 347 346
236 234 230 229 227 227 232 236 243 249 256 262 270 274 285 289 298 309 318 325 331 334 336 338 339 344 349 350 343 345 340 345 350 353 354 353 352 351 350 349 347 345 343
235 232 232 230 228 225 228 233 241 248 258 261 263 271 274 281 292 301 310 320 326 330 331 336 340 341 343 349 350 344 340 338 343 351 351 350 350 349 350 349 347 348 345
245 242 235 233 227 228 223 232 235 238 245 252 254 262 268 275 284 293 304 313 319 325 329 335 340 344 343 342 349 351 352 349 340 341 346 349 349 347 348 349 348 348 347
247 238 236 233 233 233 230 235 236 247 253 252 254 257 266 271 277 284 295 305 314 321 329 334 339 342 344 344 347 349 352 351 348 343 340 345 344 347 348 348 346 348 347
255 243 234 230 235 236 230 233 237 242 244 247 249 252 261 267 272 277 286 298 309 319 328 333 336 339 343 346 349 350 347 342 342 344 342 342 343 345 344 346 347 348 346